Location: Saratoga Springs
(43.0831°N, 73.7850°W)
Time: 16:42:38
(UTC-04:00)

Tiros 1 despin weight - Pass Details

Date: 19 April 2024
Orbit: 578 x 620 km, 48.2° (Epoch: 29 May)

Event Time Altitude Azimuth Distance (km) Brightness Sun altitude
Rises 18:52:30 0° 294° (WNW) 2,875 ? 8.2°
Reaches altitude 10° 18:54:48 10° 295° (WNW) 1,974 ? 7.8°
Maximum altitude 18:59:21 87° 207° (SSW) 623 ? 6.9°
Drops below altitude 10° 19:03:56 10° 118° (ESE) 1,982 ? 6.1°
Sets 19:06:15 0° 118° (ESE) 2,887 ? 5.7°
